THORAD AGENA D DEB, 42552

Orbit data source: Space-Track

THORAD AGENA D DEB, 42552 is space debris in SSO originally from a launch on Wed, 08 Apr 1970 UTC launched from the Air Force Western Test Range (AFWTR). Debris objects in space refer to the collection of defunct objects orbiting the Earth. Examples of debris include non-operational satellites, rocket bodies, and fragments generated from explosions, collisions, or faulty payload assembly.

Loading next visibility...
Identifier
42552, 1970-025TJ
Orbit
SSO
Country
Flag of USUS
Related business
Manufacturer
Unknown
Mission
Spacecraft
Bus & Motor
Unknown
Mass
Unknown
Launch date (UTC)
1970-04-08 (56 years ago)
Launch vehicle
Unknown
Launch site
Air Force Western Test Range (AFWTR)
Object type
Payload
Rocket body
Debris
Shape & HBR
Unknown shape, 0.1 m
Radar Cross Section
Small (<0.1 m²)

Expand to show TLE details & history
Last TLE update: 10 hours ago

TLE from 10 hours ago
0 THORAD AGENA D DEB
1 42552U 70025TJ  25296.11400931  .00001714  00000-0  28123-2 0  9996
2 42552  99.3834 243.4910 0172413 138.1053 223.3420 13.43050843581953
Epoch: 2025-10-23T02:44Z
TLE epoch observation values (Epoch: 2025-10-23T02:44:10.404Z)
Latitude
-0.00002°
Longitude
170.66974°
Altitude
1,195.513 km
Speed
7.21 km/s
True Right ascension
16h 13m 57s
True Declination
0° 00' 00"
Sunlit
Object was in daylight at epoch
Visualization orbit readout
Latitude
Unknown
Longitude
Unknown
Altitude
Unknown
Speed
Unknown
Apparent Right ascension
Unknown
Apparent Declination
Unknown
Sunlit
N/A
Visualization observer readout
Local Sidereal Time
07:54:10
Azimuth
Unknown
Elevation
Unknown
Doppler factor
Unknown
Orbital elements
Apogee altitude
1,224.08 km
Perigee altitude
966.379 km
Semi-major axis
7,473.367 km
Eccentricity
0.01724
Inclination
99.3834°
RAAN
243.491°
Arg. of periapsis
138.1053°
True anomaly
222.00703°
Mean anomaly
223.342°
Eccentric anomaly
222.67243°
Mean motion
3.35945 °/min
Orbital period
107.16 mins
BSTAR
0.0028123
Loading maneuver chart data...
Computing Atmospheric mass density...

Documentation

Showing up to 5 results
|